Regional Weather Roundup
Issued by NWS

Home | Current Version | Previous Version | Text Only | Print | Product List | Glossary On
Versions: 1 2 3 4 5 6 7 8 9 10 11 12 13 14 15 16 17 18 19 20 21 22 23 24 25 26 27 28 29 30 31 32 33 34 35 36 37 38 39 40 41 42 43 44 45 46 47 48 49 50
000
ASUS45 KABQ 221610
RWRNM
NEW MEXICO REGIONAL WEATHER ROUNDUP
NATIONAL WEATHER SERVICE ALBUQUERQUE NM
1000 AM MDT SAT JUL 22 2017

NOTE: "FAIR" MEANS FEW OR NO CLOUDS BELOW 12,000 FEET AGL WITH NO
       SIGNIFICANT WEATHER OR OBSTRUCTIONS TO VISION.

      THIS PRODUCT IS RELEASED AS TWO VERSIONS.  ONE VERSION NEAR
      THE TOP OF THE HOUR CONTAINING PRELIMINARY DATA FROM ALBUQUERQUE
      AND OTHER STATIONS.  A FINAL VERSION WITH ADDITIONAL DATA IS
      ISSUED ABOUT 10 MINUTES AFTER THE HOUR.

NMZ501-503-504-510>518-221700-
NORTHWEST PLATEAU/NORTHCENTRAL MOUNTAINS

CITY           SKY/WX    TMP DP  RH WIND       PRES   REMARKS
FARMINGTON     FAIR      74  56  53 CALM      30.19F
LOS ALAMOS     FAIR      73  49  42 NE3       30.33S
SANTA FE       FAIR      75  57  53 VRB5      30.25F
TAOS           FAIR      73  48  40 NW3       30.33F
ANGEL FIRE     FAIR      66  49  54 CALM      30.42F

$$
NMZ402-403-502-505>509-221700-
WESTCENTRAL MOUNTAINS/SOUTHWEST MOUNTAINS

CITY           SKY/WX    TMP DP  RH WIND       PRES   REMARKS
GALLUP         FAIR      74  54  49 CALM      30.26S
GRANTS         FAIR      74  52  45 N5        30.28F
SILVER CITY    PTSUNNY   74  61  63 W6        30.20S

$$
NMZ407-409-411-412-221700-
SOUTHERN DESERTS

CITY           SKY/WX    TMP DP  RH WIND       PRES   REMARKS
DEMING         FAIR      75  66  73 CALM      30.13S
LAS CRUCES     FAIR      76  65  67 E3        30.15S
HOLLOMAN AFB   FAIR      80  65  59 S7        30.14S
ALAMOGORDO     FAIR      77  61  57 CALM      30.14S
T OR C         FAIR      75  61  61 CALM      30.16S

$$
NMZ519>523-221700-
CENTRAL VALLEYS/CENTRAL HIGHLANDS

CITY           SKY/WX    TMP DP  RH WIND       PRES   REMARKS
ALBUQUERQUE    FAIR      75  58  55 W5        30.20F
DOUBLE EAGLE   MOSUNNY   75  57  53 VRB6      30.24S
MORIARTY ARPT  FAIR      77  57  48 N3        30.26F
CLINES CORNERS FAIR      76  47  35 E10       30.31S
BELEN          FAIR      78  56  46 S3        30.18F
SOCORRO        FAIR      78  59  52 SE8       30.16F

$$
NMZ524>526-539-540-221700-
SOUTHCENTRAL MOUNTAINS

CITY           SKY/WX    TMP DP  RH WIND       PRES   REMARKS
RUIDOSO        FAIR      72  50  46 N3        30.31F

$$
NMZ527>531-221700-
NORTHEAST HIGHLANDS/NORTHEAST PLAINS

CITY           SKY/WX    TMP DP  RH WIND       PRES   REMARKS
LAS VEGAS      FAIR      75  48  38 N8        30.30F
RATON          FAIR      79  49  34 NE7       30.25F
CLAYTON        FAIR      83  53  35 N9        30.15F

$$
NMZ532>537-221700-
EASTCENTRAL PLAINS

CITY           SKY/WX    TMP DP  RH WIND       PRES   REMARKS
SANTA ROSA     FAIR      82  51  34 E5        30.13F
TUCUMCARI      FAIR      87  56  34 N8        30.07F
CANNON AFB     FAIR      85  56  36 CALM      30.12S
CLOVIS AIRPORT FAIR      87  58  37 VRB6      30.12S

$$
NMZ028-029-538-221700-
SOUTHEAST PLAINS

CITY           SKY/WX    TMP DP  RH WIND       PRES   REMARKS
ROSWELL        FAIR      85  57  38 NE7       30.07F
ARTESIA        FAIR      88  59  37 W5        30.06F
CARLSBAD       FAIR      84  63  49 VRB3      30.04F
HOBBS          SUNNY     84  63  48 SE6       30.09S


$$




USA.gov is the U.S. government's official web portal to all federal, state and local government web resources and services.